Regional Weather Roundup
Issued by NWS Sterling, VA

Home | Current Version | Previous Version | Text Only | Print | Product List | Glossary On
Versions: 1 2 3 4 5 6 7 8 9 10 11 12 13 14 15 16 17 18 19 20 21 22 23 24 25 26 27 28 29 30 31 32 33 34 35 36 37 38 39 40 41 42 43 44 45 46 47 48 49 50
000
ASUS41 KLWX 291810
RWRLWX

REGIONAL WEATHER ROUNDUP
NATIONAL WEATHER SERVICE BALTIMORE MD/WASHINGTON DC
200 PM EDT FRI AUG 29 2014

Note: "FAIR" indicates few or no clouds below 12,000 feet
with no significant weather and/or obstructions to visibility.
 TC=TEMPERATURE CELSIUS

 * =Non NWS site. Station does not report precipitation (e.g. rain,
    snow, etc.), thunder, or fog.

DCZ001-MDZ009-015-VAZ040>042-051-053>054-291900-
WASHINGTON METRO
  /KDAA//-FT BELVOIR

CITY           SKY/WX    TMP DP  RH WIND       PRES   REMARKS
WASHINGTON NAT MOSUNNY   79  50  36 VRB3      30.18F
DULLES         PTSUNNY   75  54  47 SW5       30.18F
ANDREWS AFB    SUNNY     76  55  47 VRB5      30.17F
QUANTICO       SUNNY     77  53  43 CALM      30.18F
COLLEGE PARK*  SUNNY     79  52  38 CALM      30.17F
LEESBURG*      SUNNY     77  55  47 CALM      30.19F
MANASSAS*      SUNNY     77  55  47 CALM      30.18
GAITHERSBURG*  SUNNY     73  54  49 W5        30.22F

$$

MDZ006>007-011-014-291900-
BALTIMORE METRO

CITY           SKY/WX    TMP DP  RH WIND       PRES   REMARKS
BWI AIRPORT    PTSUNNY   76  50  40 E6        30.18F
MD SCIENCE CTR   N/A     76  52  43 MISG      30.18F
MARTIN STATE   MOSUNNY   77  57  50 SE10G17   30.20F
ANNAPOLIS      SUNNY     74  49  41 E6        30.18F
FORT MEADE*    SUNNY     75  52  43 CALM      30.20F

$$

MDZ012-015-019>023-291900-
MARYLAND EASTERN SHORE

CITY           SKY/WX    TMP DP  RH WIND       PRES   REMARKS
OCEAN CITY     SUNNY     77  55  46 NE13G22   30.17S
SALISBURY      SUNNY     81  55  40 NE6       30.17F
BAY BRIDGE AP*   N/A     73  54  49 NW7       30.18F
CAMBRIDGE*     SUNNY     77  52  41 NW5       30.17F
EASTON*        SUNNY     81  50  34 NE6       30.21F

$$

MDZ017>025-291900-
SOUTHERN MARYLAND

CITY           SKY/WX    TMP DP  RH WIND       PRES   REMARKS
PATUXENT RIVER PTSUNNY   78  50  37 NE10      30.17F
ST INIGOES     SUNNY     77  53  43 VRB6      30.17F
LEONARDTOWN*   SUNNY     75  52  43 N3        30.19S

$$

MDZ003>005-291900-
NORTH CENTRAL MARYLAND

CITY           SKY/WX    TMP DP  RH WIND       PRES   REMARKS
FREDERICK*     SUNNY     77  55  47 CALM      30.21F
HAGERSTOWN APT SUNNY     73  51  46 VRB5      30.18F
WESTMINSTER*   SUNNY     73  52  46 E5        30.19F

$$

MDZ501>502-291900-
WESTERN MARYLAND

CITY           SKY/WX    TMP DP  RH WIND       PRES   REMARKS
OAKLAND*       SUNNY     72  54  53 SE5       30.22F
CUMBERLAND*    SUNNY     81  50  34 CALM      30.20S

$$

VAZ025>031-291900-
SHENANDOAH VALLEY

CITY           SKY/WX    TMP DP  RH WIND       PRES   REMARKS
WINCHESTER*    SUNNY     75  54  46 SE7       30.18F
STAUNTON*      SUNNY     78  56  46 CALM      30.20F

$$

WVZ021-048>050-054>055-291900-
EASTERN WEST VIRGINIA PANHANDLE

CITY           SKY/WX    TMP DP  RH WIND       PRES   REMARKS
MARTINSBURG    SUNNY     77  51  40 E9        30.19F
PETERSBURG*    NOT AVBL

$$

VAZ036>039-050-291900-
CENTRAL FOOTHILLS

CITY           SKY/WX    TMP DP  RH WIND       PRES   REMARKS
CHARLOTTESVILL SUNNY     76  56  49 S8        30.18F
ORANGE*        SUNNY     79  55  44 E5        30.19F

$$

VAZ055>057-291900-
NORTH AND CENTRAL PIEDMONT

CITY           SKY/WX    TMP DP  RH WIND       PRES   REMARKS
FREDERICKSBRG* SUNNY     80  56  44 E6        30.16F
STAFFORD*      SUNNY     76  57  52 CALM      30.21F

$$

NCZ024-NYZ072-PAZ021-071-VAZ022-071-291900-
OTHER REGIONAL OBSERVATIONS

CITY           SKY/WX    TMP DP  RH WIND       PRES   REMARKS
NEW YORK CITY  SUNNY     78  49  35 CALM      30.20F
PHILADELPHIA   PTSUNNY   79  49  34 SE8       30.18S
PITTSBURGH     MOSUNNY   75  51  43 CALM      30.15F
ROANOKE        PTSUNNY   76  58  53 SE7       30.20F
RICHMOND       PTSUNNY   83  58  42 CALM      30.16F
RALEIGH        PTSUNNY   82  70  66 E5        30.14S

$$

ANZ530>537-291900-
MARINE OBSERVATIONS

STATION/POSITION TIME  TEMP    WIND        PRES
                       AIR SEA DIR/SP/G
                 (UTC) (F)     (DEG/KT/KT) (MB)
THOMAS PT LIGHT  1800   70 78   30/  4/  6 1023.0F
BALT KEY BRIDGE  1800   78     170/  5/  7 1021.9F
COVE POINT       1800   71     360/  7/ 10 1021.9F
LEWISETTA        1800   73 78  100/  4/  7 1021.5S
SOLOMONS ISLAND  1800      80                N/A
PINEY POINT      1800          140/  5/  6   N/A

$$




USA.gov is the U.S. government's official web portal to all federal, state and local government web resources and services.